This is the latest recevied weather packets stored in our database for station/object KI6SYE. If no packets are shown the sender has not sent any weather packets the latest 10 day(s).
| Time | Temp. | Humidity | Pressure | Rain* | Wind** | Luminosity | Snow |
|---|---|---|---|---|---|---|---|
| 1788301584 | 22.22° C | 78% | 1014.4 hPa | 0 mm | - | 59 W/m² | - |
| 1788301279 | 22.22° C | 77% | 1014.7 hPa | 0 mm | - | 58 W/m² | - |
| 1788300975 | 22.78° C | 77% | 1014.4 hPa | 0 mm | - | 369 W/m² | - |
| 1788300671 | 22.78° C | 76% | 1014.4 hPa | 0 mm | - | 569 W/m² | - |
| 1788300370 | 23.33° C | 74% | 1014.6 hPa | 0 mm | - | 575 W/m² | - |
| 1788300069 | 22.78° C | 75% | 1014.7 hPa | 0 mm | - | 593 W/m² | - |
| 1788299767 | 22.78° C | 74% | 1014.8 hPa | 0 mm | - | 602 W/m² | - |
| 1788299463 | 23.33° C | 73% | 1014.8 hPa | 0 mm | - | 613 W/m² | - |
| 1788299161 | 22.78° C | 74% | 1014.5 hPa | 0 mm | - | 624 W/m² | - |
| 1788298856 | 22.78° C | 74% | 1014.9 hPa | 0 mm | - | 633 W/m² | - |
| 1788298554 | 22.78° C | 73% | 1014.8 hPa | 0 mm | - | 641 W/m² | - |
| 1788298249 | 23.33° C | 73% | 1015.1 hPa | 0 mm | - | 650 W/m² | - |
| 1788297949 | 22.78° C | 75% | 1015 hPa | 0 mm | - | 658 W/m² | - |
| 1788297646 | 23.33° C | 73% | 1014.9 hPa | 0 mm | - | 668 W/m² | - |
| 1788297341 | 22.78° C | 75% | 1015 hPa | 0 mm | - | 674 W/m² | - |
| 1788297037 | 22.78° C | 74% | 1014.8 hPa | 0 mm | - | 681 W/m² | - |
| 1788296732 | 23.33° C | 73% | 1015 hPa | 0 mm | - | 688 W/m² | - |
| 1788296428 | 22.78° C | 75% | 1014.9 hPa | 0 mm | - | 694 W/m² | - |
| 1788296124 | 23.33° C | 74% | 1015 hPa | 0 mm | - | 700 W/m² | - |
| 1788295824 | 23.33° C | 74% | 1015 hPa | 0 mm | - | 703 W/m² | - |
| 1788295521 | 22.78° C | 75% | 1015.1 hPa | 0 mm | - | 708 W/m² | - |
| 1788295221 | 23.33° C | 73% | 1015 hPa | 0 mm | - | 717 W/m² | - |
| 1788294915 | 22.78° C | 74% | 1015.1 hPa | 0 mm | - | 721 W/m² | - |
| 1788294630 | 23.33° C | 72% | 1015.3 hPa | 0 mm | - | 725 W/m² | - |
| 1788294305 | 22.78° C | 73% | 1015.4 hPa | 0 mm | - | 729 W/m² | - |
* Rain latest hour (hover to see other rain measurements)
** Current wind speed in m/s (hover to see current wind gust speed)